{"data":{"norad_id":58352,"intl_designator":"2023-177B","name":"STARLINK-30907","alt_names":[],"object_type":"PAYLOAD","status":"ACTIVE","operator":null,"country":"US","launch_date":"2023-11-18","launch_site_code":"AFETR","launch_vehicle":null,"mission":null,"orbit_class":"UNKNOWN","rcs_meters":null,"size_class":null,"mass_kg":null,"dimensions":null,"purposes":["comms"],"wikipedia_slug":null,"has_3d_model":false,"image_url":null,"decayed_at":null,"tle_current":{"epoch":"2026-09-20T21:22:19.014240Z","epoch_age_seconds":109840,"freshness":"FRESH","line1":"1 58352U 23177B   26263.89049785 -.00000412  00000+0 -54464-5 0  9998","line2":"2 58352  43.0060 327.9711 0001150 281.7408  78.3314 15.27579099158177","mean_motion":15.27579099,"eccentricity":0.000115,"inclination_deg":43.006,"raan_deg":327.9711,"arg_perigee_deg":281.7408,"mean_anomaly_deg":78.3314,"bstar":-5.4464e-6,"rev_number":15817,"period_min":94.266804314269,"perigee_km":482.26275724781,"apogee_km":483.84083067042,"semimajor_km":6861.1887939591,"source":"CELESTRAK","updated_at":"2026-09-21T09:00:33.840886Z"}}}